Regional Weather Roundup
Issued by NWS

Home | Current Version | Previous Version | Graphics & Text | Print | Product List | Glossary On
Versions: 1 2 3 4 5 6 7 8 9 10 11 12 13 14 15 16 17 18 19 20 21 22 23 24 25 26 27 28 29 30 31 32 33 34 35 36 37 38 39 40 41 42 43 44 45 46 47 48 49 50
266
ASUS43 KDTX 262110
RWRMI
MICHIGAN HOURLY REGIONAL WEATHER ROUNDUP
NATIONAL WEATHER SERVICE DETROIT/PONTIAC MI
ISSUED BY NATIONAL WEATHER SERVICE GRAND RAPIDS MI
500 PM EDT WED JUL 26 2017

NOTE: "FAIR" INDICATES FEW OR NO CLOUDS BELOW 12,000 FEET WITH NO
SIGNIFICANT WEATHER AND/OR OBSTRUCTION TO VISIBILITY.

MIZ047>049-052>055-059>063-066>070-074>076-081>083-262200-
SOUTHEAST LOWER MICHIGAN

CITY           SKY/WX    TMP DP  RH WIND       PRES   REMARKS
ADRIAN         MOSUNNY   79  62  56 SW9       30.07F
ALMA           CLOUDY    79  63  58 SW3       30.05F
ANN ARBOR      PTSUNNY   80  64  58 VRB7      30.06F
BAD AXE        DRIZZLE   71  67  86 CALM      30.05F
DETROIT CITY   PTSUNNY   79  63  57 SW7       30.06F
DETROIT        CLOUDY    81  62  52 W10       30.06F
FLINT          CLOUDY    80  62  54 VRB6      30.06F
GROSSE ILE     CLOUDY    77  65  67 S8        30.06F
HILLSDALE      PTSUNNY   79  61  53 S5        30.06F
HOWELL         PTSUNNY   80  61  52 W6        30.07F

CITY           SKY/WX    TMP DP  RH WIND       PRES   REMARKS
JACKSON        CLOUDY    79  61  53 CALM      30.07F
LANSING        MOSUNNY   80  62  54 VRB3      30.06F
MASON          PTSUNNY   81  65  58 SW5       30.07F
MONROE         CLOUDY    81  63  53 SW5       30.05F
MT. CLEMENS    CLOUDY    79  66  63 S9        30.06S
PONTIAC        PTSUNNY   81  60  48 NW8       30.06F
PORT HOPE        N/A     68  66  93 SW6       30.02F
PORT HURON     PTSUNNY   77  63  61 S3        30.08F
TRI CITIES     CLOUDY    74  69  85 W6        30.07R
YPSILANTI      PTSUNNY   81  63  54 SW5       30.07F
$$
MIZ043>046-050>051-056>058-064>065-071>073-077>080-262200-
SOUTHWEST LOWER MICHIGAN

CITY           SKY/WX    TMP DP  RH WIND       PRES   REMARKS
BATTLE CREEK   CLOUDY    81  63  54 SW8       30.07S
BENTON HARBOR  MOSUNNY   83  66  56 W7        30.03F
BIG RAPIDS     CLOUDY    71  68  90 CALM      30.03F
COLDWATER      MOSUNNY   80  63  55 SW8       30.06F
HOLLAND        PTSUNNY   82  62  50 SW9       30.04F
GRAND RAPIDS   CLOUDY    80  63  55 S12       30.04F
KALAMAZOO      MOSUNNY   82  61  48 S9        30.05F
MARSHALL       MOSUNNY   81  64  55 SW5       30.06S
MOUNT PLEASANT LGT RAIN  72  67  86 S5        30.03F
MUSKEGON       CLOUDY    77  65  66 S10       30.03S
STURGIS        PTSUNNY   80  65  60 S6        30.05F
$$
MIZ016>042-262200-
NORTHERN LOWER MICHIGAN

CITY           SKY/WX    TMP DP  RH WIND       PRES   REMARKS
ALPENA         CLOUDY    70  69  97 SW8       29.94F
BEAVER ISLAND  DRIZZLE   67  66  96 SW10G18   29.95S
BELLAIRE       MOSUNNY   70  66  87 S7        29.95F
CADILLAC       CLOUDY    71  67  88 S12G17    30.01F
CHARLEVOIX     PTSUNNY   71  68  92 SW10G17   29.97S
GAYLORD        MOSUNNY   70  65  84 SW13      29.98S
HOUGHTON LAKE  CLOUDY    69  66  90 S12       30.01F
MANISTEE       PTSUNNY   70  68  93 S8        30.00R
OSCODA         CLOUDY    71  67  89 S12G22    29.97F
PELLSTON       CLOUDY    72  68  87 W5        29.95R
TRAVERSE CITY  CLOUDY    72  67  84 CALM      29.94F
LUDINGTON      RAIN      69  68  97 SW7       30.04S
$$
MIZ007>008-015-262200-
EASTERN UPPER MICHIGAN

CITY           SKY/WX    TMP DP  RH WIND       PRES   REMARKS
MACKINAC ISLAN CLOUDY    68  68 100 W14G20    29.93S
NEWBERRY       MOSUNNY   76  67  74 W6        29.92F
S. S. MARIE    CLOUDY    73  64  73 NW9       29.91S
$$
MIZ004>006-011>014-085-262200-
CENTRAL UPPER MICHIGAN

CITY           SKY/WX    TMP DP  RH WIND       PRES   REMARKS
MANISTIQUE     PTSUNNY   72  68  89 S9        29.91F
ESCANABA       CLOUDY    73  72  94 S13       29.91F
MENOMINEE      CLOUDY    74  71  91 SW6       29.96S
SAWYER-GWINN   MOSUNNY   77  61  57 NE12G17   29.93F
$$
MIZ001>003-009>011-084-262200-
WESTERN UPPER MICHIGAN

CITY           SKY/WX    TMP DP  RH WIND       PRES   REMARKS
IRON MOUNTAIN  MOSUNNY   81  64  56 W8        29.92S
HOUGHTON       SUNNY     77  54  44 W18       29.94S
COPPER HARBOR    N/A     73  51  46 N16       29.91S
IRONWOOD       SUNNY     78  58  49 NW9G17    29.98S
$$

ABBREVIATIONS USED IN REMARKS
   TC - TEMPERATURE IN CELSIUS
  WCI - WIND CHILL INDEX
   HX - HEAT INDEX
  VSB - VISIBILITY





USA.gov is the U.S. government's official web portal to all federal, state and local government web resources and services.